{"data":{"norad_id":67981,"intl_designator":"2026-038W","name":"STARLINK-36874","alt_names":[],"object_type":"PAYLOAD","status":"ACTIVE","operator":null,"country":"US","launch_date":"2026-02-25","launch_site_code":"AFWTR","launch_vehicle":null,"mission":null,"orbit_class":"UNKNOWN","rcs_meters":null,"size_class":null,"mass_kg":null,"dimensions":null,"purposes":["comms"],"wikipedia_slug":null,"has_3d_model":false,"image_url":null,"decayed_at":null,"tle_current":{"epoch":"2026-09-19T18:11:41.775360Z","epoch_age_seconds":123776,"freshness":"FRESH","line1":"1 67981U 26038W   26262.75812240  .00024151  00000+0  74725-3 0  9997","line2":"2 67981  97.2850 271.1698 0001412 103.2752 256.8648 15.33477221 32982","mean_motion":15.33477221,"eccentricity":0.0001412,"inclination_deg":97.285,"raan_deg":271.1698,"arg_perigee_deg":103.2752,"mean_anomaly_deg":256.8648,"bstar":0.00074725,"rev_number":3298,"period_min":93.904231525588,"perigee_km":464.4809950257,"apogee_km":466.4136232346,"semimajor_km":6843.5843091301,"source":"CELESTRAK","updated_at":"2026-09-20T09:00:43.733329Z"}}}